Regional Weather Roundup
Issued by NWS

Home | Current Version | Previous Version | Text Only | Print | Product List | Glossary Off
Versions: 1 2 3 4 5 6 7 8 9 10 11 12 13 14 15 16 17 18 19 20 21 22 23 24 25 26 27 28 29 30 31 32 33 34 35 36 37 38 39 40 41 42 43 44 45 46 47 48 49 50

000
ASUS43 KTOP 290008
RWRKS

WEATHER ROUNDUP FOR KANSAS
NATIONAL WEATHER SERVICE GOODLAND KS
700 PM CDT MON JUL 28 2014

NOTE:  "FAIR" INDICATES FEW OR NO CLOUDS BELOW 12,000 FEET WITH NO
SIGNIFICANT WEATHER AND/OR OBSTRUCTIONS TO VISIBILITY.

KSZ001>006-013>018-027>032-041>047-290100-
NORTHWEST KANSAS

CITY           SKY/WX    TMP DP  RH WIND       PRES   REMARKS
GOODLAND       MOSUNNY   80  51  36 S16       30.24F
6HR MIN TEMP:  80; 6HR MAX TEMP:  85;

HAYS           SUNNY     86  57  37 E8        30.17F
HILL CITY      SUNNY     90  56  31 SE10      30.16F
6HR MIN TEMP:  82; 6HR MAX TEMP:  91;

RUSSELL        SUNNY     86  55  34 CALM      30.16F
6HR MIN TEMP:  79; 6HR MAX TEMP:  87;

$$

KSZ061>065-074>080-084>089-290100-
SOUTHWEST KANSAS

CITY           SKY/WX    TMP DP  RH WIND       PRES   REMARKS
DODGE CITY     SUNNY     81  55  40 S8        30.21F
6HR MIN TEMP:  79; 6HR MAX TEMP:  85;

ELKHART          N/A     73  60  63 S13         N/A
GARDEN CITY    MOSUNNY   79  58  48 SW12      30.23S
6HR MIN TEMP:  79; 6HR MAX TEMP:  85;

GREAT BEND     SUNNY     84  57  39 E7        30.16F
LIBERAL        PTSUNNY   79  55  44 SW9       30.25F
PRATT          SUNNY     84  54  34 CALM      30.19F
$$

KSZ066>073-081>083-090>101-290100-
SOUTHEAST KANSAS

CITY           SKY/WX    TMP DP  RH WIND       PRES   REMARKS
CHANUTE        SUNNY     83  56  39 N9        30.13F
6HR MIN TEMP:  80; 6HR MAX TEMP:  85;

COFFEYVILLE    SUNNY     85  57  38 N9        30.11F
6HR MIN TEMP:  82; 6HR MAX TEMP:  88;

HUTCHINSON     SUNNY     85  58  39 NE3       30.16F
6HR MIN TEMP:  81; 6HR MAX TEMP:  88;

MEDICINE LODGE   N/A     86  57  37 SW5       30.15F
NEWTON         SUNNY     84  54  34 N9G17     30.20F
PARSONS        SUNNY     84  56  38 N9        30.14F
6HR MIN TEMP:  82; 6HR MAX TEMP:  87;

WICHITA INTL   MOSUNNY   86  57  37 N8        30.15F
6HR MIN TEMP:  82; 6HR MAX TEMP:  87;

WICHITA JABRA  SUNNY     86  55  34 N8        30.15F
6HR MIN TEMP:  82; 6HR MAX TEMP:  88;

WICHITA MCCONL SUNNY     85  53  32 N9        30.15F
WINFIELD       SUNNY     87  57  35 N7        30.15F
6HR MIN TEMP:  83; 6HR MAX TEMP:  89;

$$

KSZ007>012-019>026-033>040-048>060-102>105-290100-
NORTHEAST KANSAS

CITY           SKY/WX    TMP DP  RH WIND       PRES   REMARKS
CONCORDIA      PTSUNNY   80  56  43 N13       30.19F
6HR MIN TEMP:  77; 6HR MAX TEMP:  83;

EMPORIA        SUNNY     83  52  34 N9        30.15F
6HR MIN TEMP:  78; 6HR MAX TEMP:  85;

LAWRENCE       SUNNY     80  57  45 N10       30.15F
6HR MIN TEMP:  76; 6HR MAX TEMP:  85;

MANHATTAN      SUNNY     83  55  38 N10       30.16F
6HR MIN TEMP:  80; 6HR MAX TEMP:  86;

MARYSVILLE     SUNNY     77  55  47 N9        30.19S
OLATHE IND     MOSUNNY   79  57  46 N13       30.16F
6HR MIN TEMP:  76; 6HR MAX TEMP:  82;

OLATHE EXE     MOSUNNY   79  57  46 N8        30.14F
6HR MIN TEMP:  76; 6HR MAX TEMP:  83;

SALINA         SUNNY     86  54  33 NE5       30.16F
6HR MIN TEMP:  83; 6HR MAX TEMP:  89;

TOPEKA BILLARD SUNNY     82  57  42 N12       30.16S
6HR MIN TEMP:  80; 6HR MAX TEMP:  86;

TOPEKA FORBES  SUNNY     82  55  39 N8        30.15F
6HR MIN TEMP:  80; 6HR MAX TEMP:  85;

$$



USA.gov is the U.S. government's official web portal to all federal, state and local government web resources and services.